Regional Weather Roundup
Issued by NWS

Home | Current Version | Previous Version | Graphics & Text | Print | Product List | Glossary On
Versions: 1 2 3 4 5 6 7 8 9 10 11 12 13 14 15 16 17 18 19 20 21 22 23 24 25 26 27 28 29 30 31 32 33 34 35 36 37 38 39 40 41 42 43 44 45 46 47 48 49 50
000
ASUS43 KOAX 190902
RWRNE

WEATHER ROUNDUP FOR NEBRASKA
NATIONAL WEATHER SERVICE OMAHA NE
300 AM CST SUN NOV 19 2017

NOTES: SATELLITE DATA IS BEING USED TO AUGMENT CLOUD COVER ABOVE
       12000 FEET.
       "FAIR" INDICATES FEW OR NO CLOUDS BELOW 12,000 FEET WITH NO
       SIGNIFICANT WEATHER AND/OR OBSTRUCTIONS TO VISIBILITY.


NEZ001>004-019>022-054>056-191000-
NEBRASKA PANHANDLE

CITY           SKY/WX    TMP DP  RH WIND       PRES   REMARKS
SCOTTSBLUFF    CLOUDY    22  13  68 CALM      30.18F
ALLIANCE       CLOUDY    15  13  91 W7        30.16F WCI   5
CHADRON        CLOUDY    23  18  81 S6        30.15S WCI  16
GORDON         FAIR      25  19  77 W5        30.14S WCI  20
KIMBALL        CLOUDY    24  15  69 SW3       30.19S
SIDNEY         CLOUDY    19  14  81 W7        30.20F WCI  10
$$

NEZ057>060-069>072-079>082-191000-
SOUTHWEST NEBRASKA

CITY           SKY/WX    TMP DP  RH WIND       PRES   REMARKS
NORTH PLATTE   CLEAR     19  16  88 NW3       30.21F
IMPERIAL       CLOUDY    21  15  78 W7        30.22F WCI  12
LEXINGTON      CLEAR     25  20  82 W7        30.22S WCI  17
MCCOOK         CLEAR     24  20  84 W8        30.24S WCI  15
OGALLALA       CLEAR     24  18  79 W3        30.21F
$$

NEZ005>010-023>029-035>040-094-191000-
NORTH CENTRAL NEBRASKA

CITY           SKY/WX    TMP DP  RH WIND       PRES   REMARKS
VALENTINE      CLEAR     25  19  78 W5        30.16S WCI  19
AINSWORTH      CLEAR     26  21  84 W8        30.16S WCI  17
BROKEN BOW     CLEAR     29  20  69 VRB3      30.19R
O`NEILL        CLEAR     24  22  93 SE3       30.18S
ORD            CLEAR     24  21  88 W5        30.19R WCI  18
THEDFORD       CLEAR     25  20  80 W6        30.19S WCI  18
$$

NEZ041-046>049-061>064-073>077-083>087-191000-
SOUTH CENTRAL NEBRASKA

CITY           SKY/WX    TMP DP  RH WIND       PRES   REMARKS
GRAND ISLAND   CLEAR     28  24  85 W7        30.21R WCI  21
AURORA         CLEAR     25  21  87 W9        30.21R WCI  15
HASTINGS       CLEAR     29  21  72 W7        30.22S WCI  22
HEBRON         CLEAR     27  23  85 CALM      30.24S
HOLDREGE       CLEAR     27  21  79 W6        30.22S WCI  20
KEARNEY        CLEAR     31  22  69 W3        30.22S
YORK           CLEAR     25  25 100 CALM      30.23R
$$

NEZ011>018-030>034-042>045-191000-
NORTHEAST NEBRASKA

CITY           SKY/WX    TMP DP  RH WIND       PRES   REMARKS
NORFOLK        CLEAR     22  19  89 W3        30.20R
ALBION         CLEAR     20  19  92 CALM      30.21R
BLAIR          CLEAR     27  21  79 W5        30.21R WCI  22
COLUMBUS       CLEAR     19  17  92 SW6       30.24R WCI  11
FREMONT        CLEAR     23  20  89 W8        30.22S WCI  13
TEKAMAH        CLEAR     24  18  77 W6        30.23R WCI  17
WAYNE          CLEAR     18  15  91 CALM      30.20S
$$

NEZ050>053-065>068-078-088>093-191000-
SOUTHEAST NEBRASKA

CITY           SKY/WX    TMP DP  RH WIND       PRES   REMARKS
LINCOLN        CLEAR     25  21  85 CALM      30.25R
OMAHA EPPLEY   CLEAR     27  19  72 NW7       30.23R WCI  19
BEATRICE       CLEAR     24  20  85 CALM      30.24R
FALLS CITY     CLEAR     27  22  81 NW8       30.24R WCI  19
NEBRASKA CITY  CLEAR     29  24  81 NW7       30.22S WCI  22
PLATTSMOUTH    PTCLDY    28  23  83 W7        30.22R WCI  20
$$

NEZ044-045-051>053-067-191000-
OMAHA AREA

CITY           SKY/WX    TMP DP  RH WIND       PRES   REMARKS
OMAHA EPPLEY   CLEAR     27  19  72 NW7       30.23R WCI  19
BLAIR          CLEAR     27  21  79 W5        30.21R WCI  22
FREMONT        CLEAR     23  20  89 W8        30.22S WCI  13
MILLARD        CLEAR     29  23  77 CALM      30.23R
OFFUTT AFB     CLEAR     23  19  83 NW9       30.22R WCI  13
PLATTSMOUTH    PTCLDY    28  23  83 W7        30.22R WCI  20
WAHOO          FAIR      28  22  79 NW7       30.23R WCI  21
$$




USA.gov is the U.S. government's official web portal to all federal, state and local government web resources and services.